Regional Weather Roundup
Issued by NWS

Home | Current Version | Previous Version | Text Only | Print | Product List | Glossary On
Versions: 1 2 3 4 5 6 7 8 9 10 11 12 13 14 15 16 17 18 19 20 21 22 23 24 25 26 27 28 29 30 31 32 33 34 35 36 37 38 39 40 41 42 43 44 45 46 47 48 49 50
000
ASUS43 KIND 120259
RWRIN

WEATHER ROUNDUP FOR INDIANA
NATIONAL WEATHER SERVICE INDIANAPOLIS IN
1000 PM EST MON DEC 11 2017

NOTE: "FAIR" INDICATES FEW OR NO CLOUDS BELOW 12,000 FEET WITH NO
SIGNIFICANT WEATHER AND/OR OBSTRUCTIONS TO VISIBILITY.

* - STATION DOES NOT REPORT WEATHER SUCH AS PRECIPITATION OR FOG.

+ - STATION NOT QUALITY CONTROLLED BY THE NATIONAL WEATHER SERVICE.
    USE DATA WITH CAUTION...ESPECIALLY DEWPOINT AND RELATIVE
    HUMIDITY OBSERVATIONS.

INZ001>003-010>013-019-020-120400-
NORTHWEST INDIANA

CITY           SKY/WX    TMP DP  RH WIND       PRES   REMARKS
GARY /AIRPORT/ CLOUDY    36  30  80 NW14      29.80R WCI  27
MICHIGAN CITY+ CLOUDY    34  32  93 NW8       29.76R WCI  27
MONTICELLO +   CLOUDY    32  26  79 NW15      29.73R WCI  22
RENSSELAER +   CLOUDY    34  28  80 NW9       29.76R WCI  26

$$

LMZ046-743>745-120400-
SOUTHERN LAKE MICHIGAN

STATION/POSITION TIME  TEMP    WIND        PRES    WAVE
                       AIR SEA DIR/SP/G            HT
                 (UTC) (F)     (DEG/KT/KT) (MB)    (FT)
BURNS HARBOR     0240   36     330/ 18/ 22 1008.1S
MICHIGAN CITY    0230   36     310/ 21/ 23   N/A

$$

INZ004-005-014>016-021>024-120400-
NORTH CENTRAL INDIANA

CITY           SKY/WX    TMP DP  RH WIND       PRES   REMARKS
GOSHEN         LGT SNOW  31  28  89 N7        29.71R FOG     WCI  24
SOUTH BEND     LGT SNOW  30  30 100 NW6       29.73S FOG     WCI  24

$$

INZ006>009-017-018-025>027-120400-
NORTHEAST INDIANA

CITY           SKY/WX    TMP DP  RH WIND       PRES   REMARKS
FORT WAYNE     CLOUDY    30  27  88 N6        29.65F WCI  24
KENDALLVILLE + FLURRIES  31  27  86 CALM      29.68F

$$

INZ028-029-035-036-043>045-051>053-120400-
WEST CENTRAL INDIANA

CITY           SKY/WX    TMP DP  RH WIND       PRES   REMARKS
LAFAYETTE      PTCLDY    33  27  78 NW8       29.75R WCI  26
TERRE HAUTE    CLOUDY    41  26  55 NW16G23   29.81R

$$

INZ030>032-037>040-046>048-054>057-064-065-120400-
CENTRAL INDIANA

CITY           SKY/WX    TMP DP  RH WIND       PRES   REMARKS
COLUMBUS       CLOUDY    43  25  49 W17G24    29.74R
INDIANAPOLIS   CLOUDY    41  27  57 W18G26    29.73R
-EAGLE CREEK   CLOUDY    41  26  55 W14G25    29.70R
KOKOMO +       CLOUDY    36  28  73 W15       29.68R WCI  27
MT COMFORT *+  MOCLDY    39  30  70 W18       29.70R WCI  30
SHELBYVILLE    CLOUDY    43  26  51 W18G32    29.71R

$$

INZ033-034-041-042-049-050-058-059-120400-
EAST CENTRAL INDIANA

CITY           SKY/WX    TMP DP  RH WIND       PRES   REMARKS
MUNCIE         CLOUDY    40  26  57 W13       29.65R WCI  32
RICHMOND +     MOCLDY    37  28  70 W15       29.67S WCI  28

$$

INZ060-061-067>069-081>083-085>088-120400-
SOUTHWEST INDIANA

CITY           SKY/WX    TMP DP  RH WIND       PRES   REMARKS
EVANSVILLE     CLOUDY    48  31  51 NW7G18    29.87R
HUNTINGBURG +  PTCLDY    45  30  55 W21       29.84R

$$

INZ062-063-066-070>080-084-089>092-120400-
SOUTH CENTRAL AND SOUTHEAST INDIANA

CITY           SKY/WX    TMP DP  RH WIND       PRES   REMARKS
BLOOMINGTON    CLEAR     41  25  53 NW15G33   29.78R
SEYMOUR +      CLOUDY    46  28  49 W20G26    29.75R

$$





USA.gov is the U.S. government's official web portal to all federal, state and local government web resources and services.